Weather History for Marion Regional, IL

Change the Weather History Date:

Saturday, November 30, 2013

  Actual Average Record
Temperature  
Mean Temperature 40 °F -  
Max Temperature 53 °F 48 °F 70 °F (1970)
Min Temperature 28 °F 31 °F 7 °F (1976)
Degree Days  
Heating Degree Days 24    
Moisture  
Dew Point 29 °F    
Average Humidity 66    
Maximum Humidity 87    
Minimum Humidity 41    
Precipitation  
Precipitation 0.00 in - - ()
Sea Level Pressure  
Sea Level Pressure 30.30 in    
Wind  
Wind Speed 5 mph (South)    
Max Wind Speed 14 mph    
Max Gust Speed -    
Visibility 12 miles    
Events      
Averages and records for this station are not official NWS values.
T = Trace of Precipitation, MM = Missing Value Source: NWS Daily Summary

Daily Weather History Graph

Daily Weather History Graph

Search for Another Location

Airport:

Trip Planner

Search our weather history database for the weather conditions in past years. The results will help you decide how hot, cold, wet, or windy it might be!

Date:

Astronomy

Nov. 30, 2013 Rise Set
Actual Time 6:51 AM CST 4:37 PM CST
Civil Twilight 6:23 AM CST 5:06 PM CST
Nautical Twilight 5:50 AM CST 5:38 PM CST
Astronomical Twilight 5:18 AM CST 6:10 PM CST
Moon 4:05 AM CST (11/30) 2:59 PM CST (11/30)
Length of Visible Light 10h 43m
Length of Day
9h 45m
Waning Crescent, 7% of the Moon is Illuminated
Nov 30
Waning Crescent
Dec 2
New
Dec 9
First Quarter
Dec 17
Full
Dec 25
Last Quarter

Hourly Weather History & Observations

Time (CST) Temp. Windchill Dew Point Humidity Pressure Visibility Wind Dir Wind Speed Gust Speed Precip Events Conditions
12:15 AM 33.8 °F 28.6 °F 26.6 °F 75% 30.42 in 10.0 mi ESE 5.8 mph - N/A   Clear
12:35 AM 33.8 °F 29.6 °F 26.6 °F 75% 30.42 in 10.0 mi ESE 4.6 mph - N/A   Clear
12:55 AM 33.8 °F - 26.6 °F 75% 30.41 in 10.0 mi Calm Calm - N/A   Clear
1:15 AM 33.8 °F - 26.6 °F 75% 30.41 in 10.0 mi Calm Calm - N/A   Clear
1:35 AM 32.0 °F - 26.6 °F 80% 30.41 in 10.0 mi Calm Calm - N/A   Clear
1:55 AM 32.0 °F - 26.6 °F 80% 30.41 in 10.0 mi Calm Calm - N/A   Clear
2:15 AM 28.4 °F - 24.8 °F 86% 30.41 in 10.0 mi Calm Calm - N/A   Clear
2:35 AM 32.0 °F 28.7 °F 28.4 °F 87% 30.41 in 10.0 mi South 3.5 mph - N/A   Clear
2:55 AM 32.0 °F - 24.8 °F 75% 30.40 in 10.0 mi Calm Calm - N/A   Clear
3:15 AM 33.8 °F - 26.6 °F 75% 30.40 in 10.0 mi Calm Calm - N/A   Clear
3:35 AM 30.2 °F 26.7 °F 26.6 °F 86% 30.40 in 10.0 mi SSE 3.5 mph - N/A   Clear
3:55 AM 32.0 °F - 26.6 °F 80% 30.40 in 10.0 mi Calm Calm - N/A   Clear
4:15 AM 32.0 °F - 26.6 °F 80% 30.40 in 10.0 mi Calm Calm - N/A   Clear
4:35 AM 32.0 °F - 26.6 °F 80% 30.40 in 10.0 mi Calm Calm - N/A   Clear
4:55 AM 32.0 °F - 26.6 °F 80% 30.39 in 10.0 mi Calm Calm - N/A   Clear
5:15 AM 32.0 °F 28.7 °F 26.6 °F 80% 30.39 in 10.0 mi SSE 3.5 mph - N/A   Clear
5:35 AM 32.0 °F 26.4 °F 24.8 °F 75% 30.37 in 10.0 mi SSE 5.8 mph - N/A   Clear
5:55 AM 33.8 °F 27.7 °F 26.6 °F 75% 30.37 in 10.0 mi SSE 6.9 mph - N/A   Clear
6:15 AM 32.0 °F 24.8 °F 24.8 °F 75% 30.38 in 10.0 mi SSE 8.1 mph - N/A   Clear
6:35 AM 35.6 °F 28.6 °F 26.6 °F 70% 30.37 in 10.0 mi SSE 9.2 mph - N/A   Clear
6:55 AM 35.6 °F 28.6 °F 26.6 °F 70% 30.37 in 20.0 mi SSE 9.2 mph - N/A   Scattered Clouds
8:55 AM 41.0 °F 36.4 °F 30.2 °F 65% 30.38 in 20.0 mi South 6.9 mph - N/A   Partly Cloudy
9:55 AM 46.4 °F 40.4 °F 32.0 °F 57% 30.37 in 20.0 mi SSW 13.8 mph - N/A   Partly Cloudy
10:55 AM 50.0 °F - 30.2 °F 47% 30.34 in 20.0 mi SSW 13.8 mph - N/A   Partly Cloudy
11:55 AM 51.8 °F - 30.2 °F 44% 30.30 in 20.0 mi SSW 11.5 mph - N/A   Partly Cloudy
12:55 PM 53.6 °F - 30.2 °F 41% 30.26 in 20.0 mi SSW 13.8 mph - N/A   Partly Cloudy
1:46 PM 53.6 °F - 30.2 °F 41% 30.22 in 20.0 mi SSW 13.8 mph - N/A   Partly Cloudy
2:59 PM 53.6 °F - 30.2 °F 41% 30.19 in 20.0 mi SSW 13.8 mph - N/A   Partly Cloudy
3:58 PM 51.8 °F - 32.0 °F 47% 30.19 in 20.0 mi SSW 13.8 mph - N/A   Partly Cloudy
4:48 PM 48.2 °F - 32.0 °F 54% 30.18 in 20.0 mi South 11.5 mph - N/A   Partly Cloudy
5:55 PM 46.4 °F 41.1 °F 30.2 °F 53% 30.18 in 20.0 mi South 11.5 mph - N/A   Clear
7:15 PM 46.4 °F 41.9 °F 32.0 °F 57% 30.18 in 10.0 mi SSW 9.2 mph - N/A   Clear
7:35 PM 46.4 °F 42.4 °F 30.2 °F 53% 30.18 in 10.0 mi SSW 8.1 mph - N/A   Clear
7:55 PM 46.4 °F 43.5 °F 30.2 °F 53% 30.18 in 10.0 mi SSW 5.8 mph - N/A   Clear
8:15 PM 42.8 °F 38.6 °F 30.2 °F 61% 30.19 in 10.0 mi SSW 6.9 mph - N/A   Clear
8:35 PM 42.8 °F 38.6 °F 30.2 °F 61% 30.18 in 10.0 mi SSW 6.9 mph - N/A   Clear
8:55 PM 41.0 °F 37.1 °F 30.2 °F 65% 30.18 in 10.0 mi SSW 5.8 mph - N/A   Clear
9:15 PM 39.2 °F 34.2 °F 30.2 °F 70% 30.18 in 10.0 mi SSW 6.9 mph - N/A   Clear
9:35 PM 41.0 °F 36.4 °F 30.2 °F 65% 30.18 in 10.0 mi SSW 6.9 mph - N/A   Clear
9:55 PM 41.0 °F 36.4 °F 30.2 °F 65% 30.18 in 10.0 mi SSW 6.9 mph - N/A   Clear
10:15 PM 44.6 °F 40.2 °F 30.2 °F 57% 30.18 in 10.0 mi SSW 8.1 mph - N/A   Clear
10:35 PM 46.4 °F 41.9 °F 30.2 °F 53% 30.17 in 10.0 mi SSW 9.2 mph - N/A   Clear
10:55 PM 46.4 °F 41.9 °F 32.0 °F 57% 30.17 in 10.0 mi SSW 9.2 mph - N/A   Clear
11:15 PM 44.6 °F 40.2 °F 32.0 °F 61% 30.17 in 10.0 mi SSW 8.1 mph - N/A   Clear
11:35 PM 44.6 °F 40.2 °F 32.0 °F 61% 30.17 in 10.0 mi SSW 8.1 mph - N/A   Clear
11:55 PM 44.6 °F 40.2 °F 32.0 °F 61% 30.17 in 10.0 mi SSW 8.1 mph - N/A   Clear